www.pogodaiklimat.ru

Погода и климат >> Архив погоды >> Норвегия >> Ян-Майен


ПОГОДА на Ян-Майене

  • Прогноз погоды на Ян-Майене
  • Монитор погоды на Ян-Майене

АРХИВ ПОГОДЫ на Ян-Майене

Время (UTC), дата Ветер
(напр.,м/с)
 
Видим.   Явления Облачность Т
(С)
Тd
(С)
f
(%)
Тe
(С)
Тes
(С)
Комфортность P
(гПа)
Po
(гПа)
Тmin
(С)
Tmax
(С)
R
(мм)
R24
(мм)
S
(см)
22 12.09 С 7-22
{22}
н/о н/о +2.4 -2.1 72 -4 -4 997.2 996.0
23 12.09 С 7-15
{17}
н/о н/о +2.2 -0.6 82 -4 -4 998.0 996.8
00 13.09 З 6-14
{22}
20 км {снег} 10/10 600 м
[Sc]
+2.1 -0.4 84 -4 -4 998.3 997.1 0.0
01 13.09 З 8-18
{22}
н/о н/о +2.7 -1.1 76 -4 -4 998.5 997.3
02 13.09 З 6-13
{17}
н/о н/о +2.8 -2.0 71 -3 -3 998.8 997.6
03 13.09 З 11-18
{18}
н/о н/о +3.0 -2.4 68 -4 -4 999.1 997.9
04 13.09 З 10-19
{20}
н/о н/о +3.0 -2.6 67 -4 -4 999.5 998.3
05 13.09 З 8-19
{19}
н/о н/о +3.0 -2.7 66 -3 -3 1000.1 998.9
06 13.09 З 11-15
{22}
>70 км 4/3 600 м
[Sc Ci fib]
+3.2 -2.0 69 -4 -4 1000.7 999.5 +1.6 +3.2 0.0
07 13.09 З 10-15
{19}
н/о н/о +3.2 -2.2 68 -4 -4 1000.6 999.4
08 13.09 З 13-19
{20}
н/о н/о +3.3 -1.8 69 -4 -4 1000.5 999.3
09 13.09 З 15-22
{22}
>70 км 5/4 600 м
[Sc Ci fib]
+3.4 -2.2 67 -5 -5 1000.6 999.4
10 13.09 З 5 н/о н/о +3.6 -1.9 67 -1 -1 1001.8 1000.6
11 13.09 З 6 н/о н/о +4.1 -1.4 67 -1 -1 1002.0 1000.8
12 13.09 З 8
{22}
>70 км 5/5 600 м
[Sc]
+4.4 -1.2 67 -1 -1 1002.4 1001.2
13 13.09 ЮЗ 7 н/о н/о +4.8 -0.5 69 -1 -1 1002.8 1001.6
14 13.09 ЮЗ 7 н/о н/о +4.5 -1.6 65 -1 -1 1003.0 1001.8
15 13.09 ЮЗ 8 >70 км 9/9 600 м
[Sc]
+4.4 -2.0 63 -1 -1 1003.0 1001.8
16 13.09 ЮЗ 7 н/о н/о +4.2 -1.3 67 -1 -1 1003.1 1001.9
17 13.09 ЮЗ 7 н/о н/о +4.0 -2.5 63 -1 -1 1003.1 1001.9
18 13.09 ЮЗ 5
{14}
25 км {морось} 8/8 600 м
[Sc]
+3.8 -1.8 67 -1 -1 1003.2 1002.0 +4.8 0.0
19 13.09 ЮЗ 4 н/о н/о +3.4 -2.0 68 -1 -1 1003.4 1002.2
20 13.09 ЮЗ 2 н/о н/о +3.0 -1.8 71 0 0 1003.6 1002.4
21 13.09 З 1 н/о н/о +2.3 -2.0 73 +1 +1 1003.6 1002.4
22 13.09 З 4 н/о н/о +2.2 -1.5 76 -3 -3 1003.5 1002.3
23 13.09 ЮЗ 2 н/о н/о +2.5 -1.5 75 -0 -0 1003.9 1002.7
00 14.09 ЮЗ 2
{9}
25 км 8/8 600 м
[Sc]
+2.7 -1.3 75 -0 -0 1003.9 1002.7
01 14.09 З 2-3
{3}
н/о н/о +1.4 -1.6 80 -2 -2 1003.8 1002.6
02 14.09 З 1-2
{6}
н/о н/о +2.4 -0.9 79 +1 +1 1003.7 1002.5
03 14.09 С 1 н/о н/о +2.5 -0.3 82 +1 +1 1003.6 1002.4
04 14.09 С 1-2
{3}
н/о н/о +2.4 -0.1 84 +1 +1 1003.1 1001.9
05 14.09 СЗ 1-1
{2}
н/о н/о +2.8 +0.7 86 +1 +1 1002.9 1001.7
06 14.09 З 1-2
{6}
25 км 9/9 300 м
[Sc]
+3.2 +1.5 89 +2 +2 1002.5 1001.3 +1.0 +3.7
07 14.09 Ю 2 н/о н/о +4.0 +2.5 90 +1 +1 1002.2 1001.0
09 14.09 В 6-7
{8}
20 км 9/9 100 м
[Sc Ac trans]
+5.1 +4.0 93 -0 -0 1001.3 1000.1
10 14.09 ЮВ 5-6
{8}
н/о н/о +5.7 +4.2 90 +1 +1 1000.9 999.8
11 14.09 В 6-8
{8}
н/о н/о +5.8 +4.3 90 +1 +1 1000.1 999.0
12 14.09 ЮВ 6 10 км дождь 10/10 200 м
[St]
+5.3 +3.7 89 999.6 998.5 0.3
13 14.09 В 3-4
{8}
н/о н/о +5.6 +3.9 89 +2 +2 998.9 997.8
14 14.09 ЮВ 5-6
{6}
н/о н/о +6.3 +4.9 91 +2 +2 998.2 997.1
15 14.09 В 5-6
{6}
15 км {дождь} 8/8 300 м
[Cu Sc]
+6.3 +5.2 93 +2 +2 997.6 996.5
16 14.09 ЮВ 6-7
{7}
н/о н/о +6.2 +4.6 89 +1 +1 997.2 996.1
17 14.09 В 5-6
{6}
н/о н/о +6.1 +4.8 91 +2 +2 996.7 995.6
18 14.09 В 6-7
{8}
15 км {ливн. осадки, дождь} 8/8 300 м
[Cu Sc]
+5.9 +4.5 91 +1 +1 996.5 995.4 1
19 14.09 В 4-6
{7}
н/о н/о +5.7 +4.2 90 +2 +2 996.6 995.5
20 14.09 В 4-5
{6}
н/о н/о +5.7 +3.9 88 +2 +2 996.7 995.6
21 14.09 СВ 2-4
{6}
н/о н/о +5.2 +3.4 88 +3 +3 996.7 995.6
22 14.09 С 2-4
{5}
н/о н/о +4.7 +2.4 85 +2 +2 996.9 995.8
23 14.09 СЗ 2-3
{4}
н/о н/о +4.3 +1.8 84 +2 +2 997.2 996.0
00 15.09 Ю 2-4
{7}
20 км 3/3 300 м
[Sc]
+4.3 +2.5 88 +1 +1 997.5 996.3
01 15.09 З 4-5
{7}
н/о н/о +3.8 +1.7 86 -1 -1 997.8 996.6
02 15.09 СЗ 6-8
{8}
н/о н/о +4.5 +2.3 86 -1 -1 998.1 996.9
03 15.09 СВ 2-2
{7}
н/о н/о +4.0 +2.0 87 +1 +1 998.7 997.5
04 15.09 З 2-3
{3}
н/о н/о +3.0 +0.6 84 0 0 998.9 997.7
05 15.09 СЗ 3-5
{5}
н/о н/о +3.5 +1.5 87 -0 -0 999.5 998.3
06 15.09 С 5-7
{8}
20 км 8/8 300 м
[Sc]
+3.9 +1.9 87 -1 -1 999.6 998.4 +2.9 +5.9
07 15.09 С 4-5
{7}
н/о н/о +4.1 +2.0 86 -0 -0 1000.2 999.0
08 15.09 З 2-4
{5}
н/о н/о +4.3 +2.1 86 +2 +2 1000.8 999.6
09 15.09 З 3-5
{5}
25 км 9/9 600 м
[Sc]
+4.6 +2.3 85 +1 +1 1001.3 1000.1
10 15.09 СВ 3-5
{7}
н/о н/о +4.7 +2.2 84 +1 +1 1001.8 1000.6
11 15.09 С 3-8
{8}
н/о н/о +5.0 +2.1 81 +2 +2 1002.2 1001.0
12 15.09 СЗ 3
{8}
25 км 9/9 300 м
[Sc]
+5.2 1002.5 1001.3
13 15.09 С 3-5
{6}
н/о н/о +4.9 +2.7 86 +1 +1 1003.0 1001.8
14 15.09 СЗ 3-5
{7}
н/о н/о +4.8 +2.2 83 +1 +1 1003.3 1002.1
15 15.09 СЗ 4-5
{6}
25 км 9/8 300 м
[Cu Sc Ac As]
+4.7 +1.7 81 +1 +1 1003.3 1002.1
16 15.09 СЗ 5-7
{7}
н/о н/о +4.7 +0.9 76 0 0 1003.2 1002.0
17 15.09 СЗ 3-5
{6}
н/о н/о +4.7 -0.4 69 +1 +1 1003.5 1002.3
18 15.09 СЗ 5
{8}
25 км 9/9 300 м
[Cu Sc]
+4.3 +0.9 79 -1 -1 1003.9 1002.7 +5.3
19 15.09 С 2-3
{6}
н/о н/о +4.1 +1.6 84 +1 +1 1004.5 1003.3
20 15.09 З 1-2
{3}
н/о н/о +3.1 +0.6 84 +2 +2 1004.8 1003.6
21 15.09 З 2-3
{3}
н/о н/о +2.5 +0.4 86 -1 -1 1005.1 1003.9
22 15.09 С 1-1
{3}
н/о н/о +3.1 +1.2 87 +2 +2 1005.4 1004.2
23 15.09 В 3-3
{4}
н/о н/о +4.0 +1.9 86 0 0 1005.8 1004.6
00 16.09 В 2-2
{6}
20 км 9/5 300 м
[Sc Ac trans]
+3.7 +1.5 86 +1 +1 1006.0 1004.8
01 16.09 В 2-3
{3}
н/о н/о +3.4 +1.5 87 0 0 1006.3 1005.1
02 16.09 -2
{2}
н/о н/о +2.8 +0.7 86 1006.4 1005.2
03 16.09 С 1-2
{2}
н/о н/о +2.3 -0.4 82 +1 +1 1006.8 1005.6
04 16.09 С 1-1
{2}
н/о н/о +2.1 -0.6 82 +1 +1 1007.0 1005.8
05 16.09 СЗ 1-2
{2}
н/о н/о +1.8 -1.2 80 0 0 1007.2 1006.0
06 16.09 СЗ 2-2
{3}
20 км 4/1 600 м
[Sc Ac trans]
+1.9 -1.3 79 -1 -1 1007.6 1006.4 +1.5 +4.4
07 16.09 СЗ 1-2
{2}
н/о н/о +1.7 -1.4 80 0 0 1008.2 1007.0
08 16.09 ЮЗ 2-2
{2}
н/о н/о +3.2 -0.3 78 0 0 1008.8 1007.6
09 16.09 ЮВ 2-2
{3}
25 км 3/1 600 м
[Sc Ac trans Ci fib]
+4.0 +0.2 76 +1 +2 1009.3 1008.1
10 16.09 -6
{6}
н/о н/о +4.3 +0.2 75 1009.9 1008.7
11 16.09 -8
{8}
н/о н/о +4.3 +0.9 79 1010.4 1009.2
12 16.09 С 6
{9}
30 км 5/3 600 м
[Cu med, cong Ac trans Cc]
+4.5 1011.0 1009.8
13 16.09 С 7-9
{9}
н/о н/о +4.3 +0.4 76 -1 -1 1011.4 1010.2
14 16.09 С 5-8
{9}
н/о н/о +4.4 +1.0 79 -0 -0 1011.9 1010.7
15 16.09 С 6-9
{11}
15 км осадки на расстоянии 5/4 300 м
[Cu med, cong Ac trans Ci fib]
+4.1 +1.2 81 -1 -1 1012.3 1011.1
16 16.09 -8
{9}
н/о н/о +3.9 +1.2 83 1012.8 1011.6
17 16.09 -9
{9}
н/о н/о +3.5 +0.5 81 1013.3 1012.1
18 16.09 С 6-9
{11}
>70 км 6/5 300 м
[Sc Ci fib]
+3.4 +0.2 80 -2 -2 1013.7 1012.5 +1.3 +4.7
19 16.09 С 7-10
{10}
н/о н/о +3.3 +0.4 81 -3 -3 1014.1 1012.9
20 16.09 С 8-10
{10}
н/о н/о +3.3 +0.6 82 -3 -3 1014.3 1013.1
21 16.09 С 9-12
{12}
н/о н/о +3.4 +0.4 81 -3 -3 1014.9 1013.7
22 16.09 СЗ 10-13
{13}
н/о н/о +3.3 -0.1 78 -4 -4 1015.3 1014.1
23 16.09 С 9-13
{13}
н/о н/о +3.4 +0.3 80 -3 -3 1015.8 1014.6
00 17.09 СЗ 10-12
{13}
>70 км 4/0 600 м
[Ac lent]
+3.2 +0.3 81 -4 -4 1016.3 1015.1
01 17.09 СЗ 12-15
{15}
н/о н/о +3.4 +0.9 84 -4 -4 1016.4 1015.2
02 17.09 СЗ 13-15
{16}
н/о н/о +3.4 +0.7 82 -4 -4 1016.7 1015.5
03 17.09 СЗ 13-16
{17}
н/о н/о +3.2 +1.0 85 -5 -5 1017.0 1015.8
04 17.09 СЗ 9-13
{15}
н/о н/о +3.4 +1.8 89 -3 -3 1017.6 1016.4
05 17.09 СЗ 11-15
{16}
н/о н/о +3.8 +3.0 95 -4 -4 1017.7 1016.5
06 17.09 С 10-12
{19}
500 м туман ?/? +4.2 +3.6 96 -3 -3 1018.2 1017.0 +3.1 +4.2 0.4
07 17.09 С 8-11
{12}
н/о н/о +4.1 +3.2 94 -2 -2 1018.6 1017.4
08 17.09 С 10-13
{13}
н/о н/о +4.6 +3.5 93 -2 -2 1019.3 1018.1
09 17.09 С 8-11
{12}
20 км {морось, туман} 10/10 200 м
[St]
+4.9 +3.7 92 -1 -1 1019.9 1018.7
10 17.09 С 9-12
{12}
н/о н/о +5.2 +3.7 90 -1 -1 1020.1 1018.9
11 17.09 С 7-10
{13}
н/о н/о +5.0 +3.4 89 -1 -1 1020.8 1019.6
12 17.09 С 8
{13}
30 км {морось, туман} 9/9 200 м
[Sc]
+4.9 +3.2 89 -1 -1 1021.3 1020.1 0.0
13 17.09 С 9-12
{14}
н/о н/о +5.2 +3.4 88 -1 -1 1021.7 1020.5
14 17.09 С 10-14
{14}
н/о н/о +5.1 +3.2 88 -1 -1 1022.0 1020.8
15 17.09 С 8-12
{14}
30 км в посл. час ливневой дождь 9/9 600 м
[Sc]
+4.8 +3.1 89 -1 -1 1022.7 1021.5
16 17.09 С 6-12
{12}
н/о н/о +4.7 +2.7 87 -1 -1 1023.2 1022.0
17 17.09 С 8-11
{14}
н/о н/о +4.6 +1.7 81 -1 -1 1023.5 1022.3
18 17.09 С 10
{14}
25 км {ливн. осадки, дождь} 9/6 300 м
[Cu med, cong Ac lent Ci fib]
+4.4 +2.4 87 -2 -2 1023.6 1022.4 +5.3 0.6
19 17.09 С 8-12
{13}
н/о н/о +4.3 +2.2 86 -2 -2 1024.3 1023.1
20 17.09 С 7-11
{14}
н/о н/о +4.0 +1.9 86 -2 -2 1024.9 1023.7
21 17.09 С 7-9
{13}
н/о н/о +3.8 +1.8 87 -2 -2 1025.4 1024.2
22 17.09 С 6-9
{9}
н/о н/о +3.9 +2.0 87 -2 -2 1025.6 1024.4
23 17.09 С 6-8
{10}
н/о н/о +3.7 +1.4 85 -2 -2 1025.9 1024.7
00 18.09 С 6-9
{14}
25 км 8/8 300 м
[Cu hum]
+3.3 +0.8 84 -2 -2 1026.0 1024.8
01 18.09 С 6-8
{9}
н/о н/о +3.3 +0.4 81 -2 -2 1026.1 1024.9
02 18.09 С 6-9
{9}
н/о н/о +2.6 0.0 83 -3 -3 1026.5 1025.3
03 18.09 СЗ 5-8
{9}
н/о н/о +2.0 +0.6 90 -4 -4 1026.6 1025.4
04 18.09 С 4-8
{9}
н/о н/о +2.0 +0.7 91 -3 -3 1026.4 1025.2
05 18.09 С 4-7
{8}
н/о н/о +1.7 +0.5 92 -3 -3 1026.5 1025.3
06 18.09 С 1
{9}
1500 м слаб. морось 9/9 200 м
[Sc]
+2.0 +0.5 90 0 0 1026.6 1025.4 +1.6 0.1
07 18.09 С 1-3
{3}
н/о н/о +2.3 +1.0 91 +1 +1 1026.5 1025.3
08 18.09 ЮЗ 1-2
{2}
н/о н/о +2.4 +1.4 93 +1 +1 1026.8 1025.6
09 18.09 штиль 0-1
{1}
12 км слаб. морось 9/9 100 м
[St]
+2.6 +1.7 94 +1 +1 1026.8 1025.6
10 18.09 СЗ 8-9
{9}
н/о н/о +2.5 +0.7 88 -4 -4 1026.6 1025.4
11 18.09 СЗ 7-10
{10}
н/о н/о +2.5 +0.7 88 -4 -4 1026.7 1025.5
12 18.09 СЗ 6
{10}
15 км {морось} 9/9 200 м
[Sc]
+2.9 +0.8 86 -3 -3 1026.8 1025.6 1
13 18.09 СЗ 4-6
{8}
н/о н/о +3.5 +1.0 84 -1 -1 1026.8 1025.6
14 18.09 СЗ 8-10
{10}
н/о н/о +2.2 +0.2 87 -5 -5 1026.6 1025.4
15 18.09 СЗ 8-10
{11}
18 км 9/9 200 м
[Sc]
+2.5 +0.3 85 -4 -4 1026.4 1025.2
16 18.09 СЗ 7-9
{10}
н/о н/о +2.5 -0.1 83 -4 -4 1026.2 1025.0
17 18.09 СЗ 8-10
{10}
н/о н/о +2.1 +0.2 87 -5 -5 1026.0 1024.8
18 18.09 СЗ 8
{11}
20 км слаб. морось 6/4 300 м
[Sc Cs]
+1.9 +0.1 88 -5 -5 1025.7 1024.5 +3.6 1
19 18.09 С 5-7
{9}
н/о н/о +1.9 +0.2 88 -4 -4 1025.7 1024.5
20 18.09 С 3-5
{7}
н/о н/о +2.0 -0.3 85 -2 -2 1026.1 1024.9
21 18.09 С 4-5
{6}
н/о н/о +1.6 0.0 89 -4 -4 1026.0 1024.8
22 18.09 С 3-5
{6}
н/о н/о +1.2 -0.4 89 -3 -3 1025.7 1024.5
23 18.09 С 3-4
{6}
н/о н/о +0.8 -1.1 87 -4 -4 1025.6 1024.4
00 19.09 СВ 3-4
{9}
8000 м слаб. морось 9/9 200 м
[Sc]
+0.7 -0.9 89 -4 -4 1025.4 1024.2 0.1
01 19.09 С 3-4
{4}
н/о н/о +0.5 -1.5 86 -4 -4 1025.0 1023.8
02 19.09 С 3-4
{5}
н/о н/о +0.5 -1.0 90 -4 -4 1024.4 1023.2
03 19.09 С 3-5
{5}
н/о н/о +0.6 -1.6 85 -4 -4 1023.7 1022.5
04 19.09 С 3-4
{5}
н/о н/о +0.5 -1.7 85 -4 -4 1023.2 1022.0
05 19.09 С 3-5
{5}
н/о н/о +0.4 -1.9 85 -4 -4 1022.8 1021.6
06 19.09 СЗ 2
{5}
12 км {морось} 8/8 300 м
[Sc]
0.0 -2.0 86 -4 -4 1022.4 1021.2 0.0 0.1
07 19.09 З 1-1
{3}
н/о н/о 0.0 -1.8 88 -2 -2 1022.1 1020.9
08 19.09 СЗ 1-1
{1}
н/о н/о -0.1 -1.4 91 -2 -2 1021.9 1020.7
09 19.09 З 2-2
{2}
15 км в посл. час ливневой снег 8/6 600 м
[Cu Sc Ci sp]
+0.1 -1.7 88 -4 -3 1022.0 1020.8
10 19.09 СВ 2-3
{3}
н/о н/о +0.8 -1.9 82 -3 -3 1021.5 1020.3
11 19.09 З 1-1
{4}
н/о н/о +1.0 -2.0 80 -1 -1 1021.3 1020.1
12 19.09 В 5
{6}
20 км {ливн. осадки} 8/6 600 м
[Sc Ci sp]
+1.6 -1.7 79 -4 -4 1020.6 1019.4
13 19.09 В 5-6
{7}
н/о н/о +1.6 -1.6 79 -4 -4 1020.1 1018.9
14 19.09 В 5-7
{8}
н/о н/о +1.6 -1.4 80 -4 -4 1019.7 1018.5
15 19.09 В 5-6
{6}
20 км 8/6 600 м
[Sc Cs]
+2.1 -0.7 82 -3 -3 1019.2 1018.0
16 19.09 В 5-7
{7}
н/о н/о +2.3 +0.4 87 -3 -3 1018.9 1017.7
17 19.09 В 3-5
{7}
н/о н/о +2.7 0.0 82 -1 -1 1018.4 1017.2
18 19.09 В 4
{8}
30 км 8/5 600 м
[Sc Ac trans Ci fib]
+3.1 -0.0 80 -2 -2 1017.4 1016.2 +3.1
19 19.09 В 6-7
{7}
н/о н/о +3.1 +0.7 84 -3 -3 1017.0 1015.8
20 19.09 В 8-10
{10}
н/о н/о +3.2 +1.5 89 -3 -3 1016.9 1015.7
21 19.09 В 10-12
{12}
н/о н/о +3.2 +1.6 89 -4 -4 1016.6 1015.4
22 19.09 В 9-10
{12}
н/о н/о +3.3 +1.5 88 -4 -4 1016.2 1015.0

 

Местоположение метеостанции Ян-Майен (Норвегия): широта 70.93 долгота -8.67 высота над уровнем моря 10 м.

В архиве по умолчанию представлена погода на Ян-Майене за последнюю неделю. Архивные данные за месяц целиком и за предыдущие месяцы, начиная с января 2011 года, Вы можете получить, выбрав интересующий диапазон дат из раскрывающегося списка и нажав кнопку "Ввод!".


*Определитесь, кто Вы:
робот инопланетянин человек

Внимание! Время в таблицах - всемирное. Для получения местного времени необходимо прибавить поправку, которая равна -1 ч.

Смотрите также архив погоды в соседних городах и на ближайших метеорологических станциях:

Погода в Ittoqqortoormiit (Гренландия) (490 км)
Погода в Constable Pynt (Гренландия) (510 км)
Погода в Daneborg (Гренландия) (535 км)
Погода на Гримсее (Исландия) (617 км)
Погода на Далатанги (Исландия) (661 км)
Погода на Далатанги 2 (Исландия) (661 км)
Погода в Гримсстадире (Исландия) (663 км)
Погода в Акюрейри - Кроссанес (Исландия) (698 км)
Погода в Акюрейри (Исландия) (699 км)
Погода в Danmarkshavn (Гренландия) (717 км)

Пояснения к столбцам:

Ветер - указаны скорость ветра в м/с - средняя за 10 мин, порывы в срок и между сроками (в фигурных скобках) и направление, откуда дует ветер: С - северный, СВ - северо-восточный, В - восточный, ЮВ - юго-восточный, Ю - южный, ЮЗ - юго-западный, З - западный, СЗ - северо-западный.
Видимость - горизонтальная дальность видимости в метрах или километрах. При видимости от 1 до 10 км при отсутствии осадков обычно наблюдается дымка, при ухудшении видимости до 1 км и менее - туман. В сухую погоду видимость может ухудшаться дымом, пылью или мглою.
Явления - указаны атмосферные явления, наблюдавшиеся в срок или в последний час перед сроком; фигурными скобками обозначены явления, наблюдавшиеся между сроками (за 1-3 часа до срока); квадратными скобками обозначены град или гололедные отложения с указанием их диаметра в мм.
Облачность - указаны через наклонную черту общая и нижняя облачность в баллах и высота нижней границы облаков в метрах; квадратными скобками обозначены формы облаков: Ci - перистые, Cs - перисто-слоистые, Cc - перисто-кучевые, Ac - высококучевые, As - высокослоистые, Sc - слоисто-кучевые, Ns - слоисто-дождевые, Cu - кучевые, Cb - кучево-дождевые. Подробнее классификацию облаков см. в Атласе облаков (PDF).
T - Температура воздуха - температура, измеренная на высоте 2 м над землей.
Td - Температура точки росы - температура, при понижении до которой содержащийся в воздухе водяной пар достигнет насыщения.
f - Относительная влажность воздуха - влажноcть воздуха, измеренная на высоте 2 м над землей.
Te - Эффективная температура - температура, которую ощущает одетый по сезону человек в тени. Характеристика душности погоды. При расчете учитывается влияние влажности воздуха и скорости ветра на теплоощущения человека.
Tes - Эффективная температура на солнце - температура, которую ощущает человек, с поправкой на солнечный нагрев. Характеристика знойности погоды. Зависит от высоты солнца над горизонтом, облачности и скорости ветра. Ночью, в пасмурную погоду, а также при ветре 12 м/с и более поправка равна нулю.
P - Атмосферное давление - приведенное к уровню моря атмосферное давление.
Po - Атмосферное давление - измеренное на уровне метеостанции атмосферное давление.
Tmin - Минимальная температура - минимум температуры воздуха на высоте 2 м над землей.
Tmax - Максимальная температура - максимум температуры воздуха на высоте 2 м над землей.
R - Количество осадков - Количество выпавших осадков за период времени, мм. При наведении курсора мыши на число - период времени, за который выпало указанное количество осадков.
R24 - Количество осадков - Количество выпавших осадков за 24 часа, мм.
S - Снежный покров - Высота снежного покрова, см. При наведении курсора мыши на число - состояние снежного покрова и степень покрытия местности в баллах.